Private Wetterstation Wechselburg
Wetterdaten: Sonntag, 19.04.2015
Datum Zeit Temp. +2m Bodentemp. Temp.+5cm Temp. Wind Windchill X Diff Temp. Feuchte +2m Feuchte +5cm Sonnenschein Luftdruck Regen Wind Richtung Richtung Sonnenschein Taupunkt Windchill Windben
19.04.2015 00:00 1,6 C 20,3 C 1,4 C 0,9 C -0,4 C 0,0 C 78 % 80 % 0 % 1025,2 hPa 0,0 l/m 0,0 km/h (0 Bft) W-SW 247 0 min -1,8 C -0,4 C 0,0 km/h (0 Bft)
19.04.2015 00:05 1,6 C 20,3 C 1,5 C 0,9 C -0,5 C 0,0 C 78 % 80 % 0 % 1025,2 hPa 0,0 l/m 0,0 km/h (0 Bft) W-SW 247 0 min -1,8 C -0,5 C 0,0 km/h (0 Bft)
19.04.2015 00:10 1,5 C 20,3 C 1,3 C 0,8 C -0,6 C 0,0 C 78 % 80 % 0 % 1025,2 hPa 0,0 l/m 0,0 km/h (0 Bft) SW 225 0 min -1,9 C -0,6 C 0,0 km/h (0 Bft)
19.04.2015 00:15 1,3 C 20,3 C 1,5 C 0,6 C -0,7 C 0,0 C 78 % 80 % 0 % 1025,2 hPa 0,0 l/m 0,0 km/h (0 Bft) SW 225 0 min -2,1 C -0,7 C 0,0 km/h (0 Bft)
19.04.2015 00:20 1,3 C 20,3 C 1,3 C 0,6 C -0,8 C 0,0 C 79 % 80 % 0 % 1025,4 hPa 0,0 l/m 0,0 km/h (0 Bft) S 180 0 min -1,9 C -0,8 C 0,0 km/h (0 Bft)
19.04.2015 00:25 1,2 C 20,2 C 1,3 C 0,5 C -0,9 C 0,0 C 79 % 81 % 0 % 1025,4 hPa 0,0 l/m 0,0 km/h (0 Bft) SW 225 0 min -2,0 C -0,9 C 0,0 km/h (0 Bft)
19.04.2015 00:30 1,1 C 20,2 C 1,2 C 0,4 C -1,0 C 0,0 C 79 % 81 % 0 % 1025,4 hPa 0,0 l/m 0,0 km/h (0 Bft) S-SW 202 0 min -2,1 C -1,0 C 0,0 km/h (0 Bft)
19.04.2015 00:35 1,0 C 20,2 C 1,1 C 0,3 C -1,2 C 0,0 C 79 % 81 % 0 % 1025,4 hPa 0,0 l/m 0,0 km/h (0 Bft) W 270 0 min -2,2 C -1,2 C 0,0 km/h (0 Bft)
19.04.2015 00:40 0,9 C 20,2 C 1,1 C 0,2 C -1,3 C 0,0 C 80 % 81 % 0 % 1025,6 hPa 0,0 l/m 0,3 km/h (0 Bft) S 180 0 min -2,2 C -1,3 C 2,9 km/h (1 Bft)
19.04.2015 00:45 0,9 C 20,2 C 1,1 C 0,3 C -1,0 C 0,0 C 80 % 81 % 0 % 1025,6 hPa 0,0 l/m 0,5 km/h (0 Bft) N-NO 22 0 min -2,2 C -1,0 C 0,0 km/h (0 Bft)
19.04.2015 00:50 0,8 C 20,2 C 0,9 C 0,2 C -1,0 C 0,0 C 80 % 81 % 0 % 1025,6 hPa 0,0 l/m 0,5 km/h (0 Bft) SW 225 0 min -2,2 C -1,0 C 0,0 km/h (0 Bft)
19.04.2015 00:55 0,7 C 20,2 C 0,9 C 0,1 C -1,1 C 0,0 C 80 % 81 % 0 % 1025,6 hPa 0,0 l/m 0,0 km/h (0 Bft) SW 225 0 min -2,3 C -1,1 C 0,0 km/h (0 Bft)
19.04.2015 01:00 0,7 C 20,2 C 0,9 C 0,1 C -1,1 C 0,0 C 80 % 82 % 0 % 1024,8 hPa 0,0 l/m 0,0 km/h (0 Bft) SW 225 0 min -2,3 C -1,1 C 0,0 km/h (0 Bft)
19.04.2015 01:05 0,5 C 20,2 C 0,8 C -0,1 C -1,2 C 0,0 C 80 % 82 % 0 % 1024,8 hPa 0,0 l/m 0,0 km/h (0 Bft) W-SW 247 0 min -2,5 C -1,2 C 0,0 km/h (0 Bft)
19.04.2015 01:10 0,5 C 20,1 C 0,8 C -0,1 C -1,3 C 0,0 C 80 % 82 % 0 % 1024,8 hPa 0,0 l/m 0,0 km/h (0 Bft) W-SW 247 0 min -2,5 C -1,3 C 0,0 km/h (0 Bft)
19.04.2015 01:15 0,4 C 20,1 C 0,7 C -0,2 C -1,4 C 0,0 C 80 % 82 % 0 % 1024,8 hPa 0,0 l/m 0,0 km/h (0 Bft) SW 225 0 min -2,6 C -1,4 C 0,0 km/h (0 Bft)
19.04.2015 01:20 0,3 C 20,1 C 0,7 C -0,3 C -1,4 C 0,0 C 80 % 82 % 0 % 1024,9 hPa 0,0 l/m 0,0 km/h (0 Bft) W 270 0 min -2,7 C -1,4 C 0,0 km/h (0 Bft)
19.04.2015 01:25 0,2 C 20,1 C 0,5 C -0,3 C -1,4 C 0,0 C 80 % 82 % 0 % 1024,9 hPa 0,0 l/m 0,0 km/h (0 Bft) W-SW 247 0 min -2,8 C -1,4 C 0,0 km/h (0 Bft)
19.04.2015 01:30 0,1 C 20,1 C 0,7 C -0,4 C -1,5 C 0,0 C 81 % 82 % 0 % 1024,9 hPa 0,0 l/m 0,0 km/h (0 Bft) W-SW 247 0 min -2,8 C -1,5 C 0,0 km/h (0 Bft)
19.04.2015 01:35 0,0 C 20,1 C 0,5 C -0,6 C -1,7 C 0,0 C 81 % 82 % 0 % 1024,9 hPa 0,0 l/m 0,0 km/h (0 Bft) W-SW 247 0 min -2,9 C -1,7 C 0,0 km/h (0 Bft)
19.04.2015 01:40 -0,1 C 20,2 C 0,4 C -0,7 C -1,9 C 0,0 C 80 % 82 % 0 % 1024,8 hPa 0,0 l/m 0,0 km/h (0 Bft) W-SW 247 0 min -3,1 C -1,9 C 0,0 km/h (0 Bft)
19.04.2015 01:45 -0,2 C 20,2 C 0,4 C -0,8 C -2,0 C 0,0 C 81 % 83 % 0 % 1024,8 hPa 0,0 l/m 0,0 km/h (0 Bft) W-SW 247 0 min -3,1 C -2,0 C 0,0 km/h (0 Bft)
19.04.2015 01:50 -0,3 C 20,2 C 0,3 C -0,9 C -2,0 C 0,0 C 81 % 83 % 0 % 1024,8 hPa 0,0 l/m 0,0 km/h (0 Bft) W-SW 247 0 min -3,2 C -2,0 C 0,0 km/h (0 Bft)
19.04.2015 01:55 -0,4 C 20,2 C 0,3 C -0,9 C -2,0 C 0,0 C 81 % 83 % 0 % 1024,8 hPa 0,0 l/m 0,0 km/h (0 Bft) W-SW 247 0 min -3,3 C -2,0 C 0,0 km/h (0 Bft)
19.04.2015 02:00 -0,5 C 20,2 C 0,2 C -1,0 C -2,1 C 0,0 C 81 % 83 % 0 % 1024,8 hPa 0,0 l/m 0,0 km/h (0 Bft) W-SW 247 0 min -3,3 C -2,1 C 0,0 km/h (0 Bft)
19.04.2015 02:05 -0,5 C 20,2 C 0,3 C -1,0 C -2,0 C 0,0 C 81 % 83 % 0 % 1024,8 hPa 0,0 l/m 0,0 km/h (0 Bft) SW 225 0 min -3,3 C -2,0 C 0,0 km/h (0 Bft)
19.04.2015 02:10 -0,7 C 20,2 C 0,3 C -1,1 C -2,0 C 0,0 C 81 % 83 % 0 % 1024,8 hPa 0,0 l/m 0,0 km/h (0 Bft) W-SW 247 0 min -3,5 C -2,0 C 0,0 km/h (0 Bft)
19.04.2015 02:15 -0,8 C 20,2 C 0,1 C -1,2 C -2,1 C 0,0 C 82 % 83 % 0 % 1024,8 hPa 0,0 l/m 0,0 km/h (0 Bft) W-NW 292 0 min -3,5 C -2,1 C 0,0 km/h (0 Bft)
19.04.2015 02:20 -0,9 C 20,1 C 0,1 C -1,3 C -2,1 C 0,0 C 82 % 83 % 0 % 1024,6 hPa 0,0 l/m 0,0 km/h (0 Bft) NW 315 0 min -3,6 C -2,1 C 0,0 km/h (0 Bft)
19.04.2015 02:25 -0,9 C 20,1 C 0,1 C -1,4 C -2,3 C 0,0 C 82 % 84 % 0 % 1024,6 hPa 0,0 l/m 0,0 km/h (0 Bft) W-SW 247 0 min -3,6 C -2,3 C 0,0 km/h (0 Bft)
19.04.2015 02:30 -1,0 C 20,1 C -0,1 C -1,5 C -2,4 C 0,0 C 82 % 84 % 0 % 1024,6 hPa 0,0 l/m 0,0 km/h (0 Bft) W-SW 247 0 min -3,7 C -2,4 C 0,0 km/h (0 Bft)
19.04.2015 02:35 -1,1 C 20,1 C -0,1 C -1,5 C -2,4 C 0,0 C 82 % 84 % 0 % 1024,6 hPa 0,0 l/m 0,0 km/h (0 Bft) W-SW 247 0 min -3,8 C -2,4 C 0,0 km/h (0 Bft)
19.04.2015 02:40 -1,1 C 20,1 C -0,1 C -1,5 C -2,4 C 0,0 C 82 % 84 % 0 % 1024,4 hPa 0,0 l/m 0,0 km/h (0 Bft) W-SW 247 0 min -3,8 C -2,4 C 0,0 km/h (0 Bft)
19.04.2015 02:45 -1,1 C 20,1 C -0,1 C -1,5 C -2,3 C 0,0 C 83 % 84 % 0 % 1024,4 hPa 0,0 l/m 0,0 km/h (0 Bft) SW 225 0 min -3,6 C -2,3 C 0,0 km/h (0 Bft)
19.04.2015 02:50 -1,1 C 20,1 C -0,2 C -1,5 C -2,3 C 0,0 C 83 % 84 % 0 % 1024,4 hPa 0,0 l/m 0,0 km/h (0 Bft) SW 225 0 min -3,6 C -2,3 C 0,0 km/h (0 Bft)
19.04.2015 02:55 -1,3 C 20,1 C -0,3 C -1,7 C -2,5 C 0,0 C 83 % 84 % 0 % 1024,4 hPa 0,0 l/m 0,0 km/h (0 Bft) SW 225 0 min -3,8 C -2,5 C 0,0 km/h (0 Bft)
19.04.2015 03:00 -1,3 C 20,1 C -0,3 C -1,7 C -2,6 C 0,0 C 83 % 84 % 0 % 1024,6 hPa 0,0 l/m 0,0 km/h (0 Bft) SW 225 0 min -3,8 C -2,6 C 0,0 km/h (0 Bft)
19.04.2015 03:05 -1,3 C 20,1 C -0,4 C -1,8 C -2,7 C 0,0 C 83 % 84 % 0 % 1024,6 hPa 0,0 l/m 0,0 km/h (0 Bft) W-SW 247 0 min -3,8 C -2,7 C 0,0 km/h (0 Bft)
19.04.2015 03:10 -1,5 C 20,0 C -0,4 C -1,9 C -2,6 C 0,0 C 83 % 84 % 0 % 1024,6 hPa 0,0 l/m 0,0 km/h (0 Bft) SW 225 0 min -4,0 C -2,6 C 0,0 km/h (0 Bft)
19.04.2015 03:15 -1,5 C 20,0 C -0,5 C -1,9 C -2,6 C 0,0 C 83 % 84 % 0 % 1024,6 hPa 0,0 l/m 0,0 km/h (0 Bft) SW 225 0 min -4,0 C -2,6 C 0,0 km/h (0 Bft)
19.04.2015 03:20 -1,6 C 20,0 C -0,5 C -1,9 C -2,5 C 0,0 C 83 % 85 % 0 % 1024,4 hPa 0,0 l/m 0,0 km/h (0 Bft) O-NO 67 0 min -4,1 C -2,5 C 0,0 km/h (0 Bft)
19.04.2015 03:25 -1,7 C 20,0 C -0,5 C -2,0 C -2,7 C 0,0 C 83 % 85 % 0 % 1024,4 hPa 0,0 l/m 0,0 km/h (0 Bft) W-SW 247 0 min -4,2 C -2,7 C 0,0 km/h (0 Bft)
19.04.2015 03:30 -1,7 C 20,0 C -0,5 C -2,0 C -2,7 C 0,0 C 83 % 85 % 0 % 1024,4 hPa 0,0 l/m 0,0 km/h (0 Bft) W-SW 247 0 min -4,2 C -2,7 C 0,0 km/h (0 Bft)
19.04.2015 03:35 -1,7 C 20,0 C -0,6 C -2,0 C -2,7 C 0,0 C 83 % 85 % 0 % 1024,4 hPa 0,0 l/m 0,0 km/h (0 Bft) SW 225 0 min -4,2 C -2,7 C 0,0 km/h (0 Bft)
19.04.2015 03:40 -1,8 C 20,0 C -0,5 C -2,1 C -2,8 C 0,0 C 83 % 85 % 0 % 1024,2 hPa 0,0 l/m 0,0 km/h (0 Bft) SW 225 0 min -4,3 C -2,8 C 0,0 km/h (0 Bft)
19.04.2015 03:45 -1,7 C 20,0 C -0,7 C -2,0 C -2,7 C 0,0 C 83 % 85 % 0 % 1024,2 hPa 0,0 l/m 0,0 km/h (0 Bft) O-NO 67 0 min -4,2 C -2,7 C 0,0 km/h (0 Bft)
19.04.2015 03:50 -1,9 C 19,9 C -0,8 C -2,1 C -2,6 C 0,0 C 83 % 85 % 0 % 1024,2 hPa 0,0 l/m 0,0 km/h (0 Bft) O-NO 67 0 min -4,4 C -2,6 C 0,0 km/h (0 Bft)
19.04.2015 03:55 -1,9 C 19,9 C -0,7 C -2,2 C -2,7 C 0,0 C 83 % 85 % 0 % 1024,2 hPa 0,0 l/m 0,0 km/h (0 Bft) O-NO 67 0 min -4,4 C -2,7 C 0,0 km/h (0 Bft)
19.04.2015 04:00 -2,0 C 19,9 C -0,8 C -2,2 C -2,6 C 0,0 C 83 % 85 % 0 % 1024,1 hPa 0,0 l/m 0,0 km/h (0 Bft) O-NO 67 0 min -4,5 C -2,6 C 0,0 km/h (0 Bft)
19.04.2015 04:05 -2,0 C 19,9 C -0,8 C -2,2 C -2,5 C 0,0 C 84 % 85 % 0 % 1024,1 hPa 0,0 l/m 0,0 km/h (0 Bft) O-NO 67 0 min -4,3 C -2,5 C 0,0 km/h (0 Bft)
19.04.2015 04:10 -1,9 C 19,9 C -0,8 C -2,1 C -2,4 C 0,0 C 84 % 85 % 0 % 1024,1 hPa 0,0 l/m 0,0 km/h (0 Bft) O-NO 67 0 min -4,2 C -2,4 C 0,0 km/h (0 Bft)
19.04.2015 04:15 -1,7 C 19,9 C -0,8 C -1,9 C -2,2 C 0,0 C 84 % 86 % 0 % 1024,1 hPa 0,0 l/m 0,0 km/h (0 Bft) O-SO 112 0 min -4,0 C -2,2 C 0,0 km/h (0 Bft)
19.04.2015 04:20 -1,7 C 19,9 C -0,8 C -1,8 C -2,1 C 0,0 C 84 % 86 % 0 % 1024,2 hPa 0,0 l/m 0,0 km/h (0 Bft) O-SO 112 0 min -4,0 C -2,1 C 0,0 km/h (0 Bft)
19.04.2015 04:25 -1,7 C 19,8 C -0,9 C -1,8 C -2,1 C 0,0 C 84 % 85 % 0 % 1024,2 hPa 0,0 l/m 0,0 km/h (0 Bft) O 90 0 min -4,0 C -2,1 C 0,0 km/h (0 Bft)
19.04.2015 04:30 -1,7 C 19,8 C -0,9 C -1,8 C -2,1 C 0,0 C 84 % 86 % 0 % 1024,2 hPa 0,0 l/m 0,0 km/h (0 Bft) O-NO 67 0 min -4,0 C -2,1 C 0,0 km/h (0 Bft)
19.04.2015 04:35 -1,7 C 19,8 C -0,9 C -1,8 C -2,1 C 0,0 C 84 % 86 % 0 % 1024,2 hPa 0,0 l/m 0,0 km/h (0 Bft) O 90 0 min -4,0 C -2,1 C 0,0 km/h (0 Bft)
19.04.2015 04:40 -1,7 C 19,8 C -0,9 C -1,8 C -2,1 C 0,0 C 84 % 86 % 0 % 1024,0 hPa 0,0 l/m 0,0 km/h (0 Bft) O-NO 67 0 min -4,0 C -2,1 C 0,0 km/h (0 Bft)
19.04.2015 04:45 -1,7 C 19,8 C -0,9 C -1,9 C -2,2 C 0,0 C 84 % 86 % 0 % 1024,0 hPa 0,0 l/m 0,0 km/h (0 Bft) O-NO 67 0 min -4,0 C -2,2 C 0,0 km/h (0 Bft)
19.04.2015 04:50 -1,7 C 19,8 C -1,0 C -1,9 C -2,2 C 0,0 C 84 % 86 % 0 % 1024,0 hPa 0,0 l/m 0,0 km/h (0 Bft) O-NO 67 0 min -4,0 C -2,2 C 0,0 km/h (0 Bft)
19.04.2015 04:55 -1,7 C 19,7 C -0,9 C -1,9 C -2,3 C 0,0 C 84 % 86 % 0 % 1024,0 hPa 0,0 l/m 0,0 km/h (0 Bft) O-NO 67 0 min -4,0 C -2,3 C 0,0 km/h (0 Bft)
19.04.2015 05:00 -1,7 C 19,7 C -0,9 C -1,9 C -2,3 C 0,0 C 84 % 86 % 0 % 1024,2 hPa 0,0 l/m 0,0 km/h (0 Bft) O-NO 67 0 min -4,0 C -2,3 C 0,0 km/h (0 Bft)
19.04.2015 05:05 -1,7 C 19,7 C -0,9 C -2,0 C -2,5 C 0,0 C 84 % 86 % 0 % 1024,2 hPa 0,0 l/m 0,0 km/h (0 Bft) O-NO 67 0 min -4,0 C -2,5 C 0,0 km/h (0 Bft)
19.04.2015 05:10 -1,9 C 19,7 C -1,1 C -2,2 C -2,7 C 0,0 C 84 % 86 % 0 % 1024,2 hPa 0,0 l/m 0,0 km/h (0 Bft) O-NO 67 0 min -4,2 C -2,7 C 0,0 km/h (0 Bft)
19.04.2015 05:15 -2,0 C 19,7 C -1,2 C -2,2 C -2,7 C 0,0 C 83 % 86 % 0 % 1024,2 hPa 0,0 l/m 0,0 km/h (0 Bft) O-NO 67 0 min -4,5 C -2,7 C 0,0 km/h (0 Bft)
19.04.2015 05:20 -2,1 C 19,7 C -1,2 C -2,3 C -2,8 C 0,0 C 84 % 86 % 0 % 1023,4 hPa 0,0 l/m 0,0 km/h (0 Bft) O-NO 67 0 min -4,4 C -2,8 C 0,0 km/h (0 Bft)
19.04.2015 05:25 -2,1 C 19,6 C -1,1 C -2,4 C -3,1 C 0,0 C 83 % 86 % 0 % 1023,4 hPa 0,0 l/m 0,0 km/h (0 Bft) W-SW 247 0 min -4,6 C -3,1 C 0,0 km/h (0 Bft)
19.04.2015 05:30 -2,1 C 19,6 C -1,2 C -2,5 C -3,2 C 0,0 C 84 % 86 % 0 % 1023,4 hPa 0,0 l/m 0,0 km/h (0 Bft) W-SW 247 0 min -4,4 C -3,2 C 0,0 km/h (0 Bft)
19.04.2015 05:35 -2,3 C 19,6 C -1,1 C -2,6 C -3,3 C 0,0 C 84 % 86 % 0 % 1023,4 hPa 0,0 l/m 0,0 km/h (0 Bft) W-SW 247 0 min -4,6 C -3,3 C 0,0 km/h (0 Bft)
19.04.2015 05:40 -2,4 C 19,6 C -1,3 C -2,7 C -3,3 C 0,0 C 84 % 86 % 0 % 1024,0 hPa 0,0 l/m 0,0 km/h (0 Bft) W-SW 247 0 min -4,7 C -3,3 C 0,0 km/h (0 Bft)
19.04.2015 05:45 -2,5 C 19,6 C -1,3 C -2,8 C -3,3 C 0,0 C 84 % 86 % 0 % 1024,0 hPa 0,0 l/m 0,0 km/h (0 Bft) W-SW 247 0 min -4,8 C -3,3 C 0,0 km/h (0 Bft)
19.04.2015 05:50 -2,5 C 19,6 C -1,3 C -2,8 C -3,4 C 0,0 C 84 % 86 % 0 % 1024,0 hPa 0,0 l/m 0,0 km/h (0 Bft) SW 225 0 min -4,8 C -3,4 C 0,0 km/h (0 Bft)
19.04.2015 05:55 -2,5 C 19,6 C -1,2 C -2,8 C -3,3 C 0,0 C 84 % 86 % 0 % 1024,0 hPa 0,0 l/m 0,0 km/h (0 Bft) SW 225 0 min -4,8 C -3,3 C 0,0 km/h (0 Bft)
19.04.2015 06:00 -2,5 C 19,6 C -1,3 C -2,8 C -3,3 C 0,0 C 84 % 86 % 0 % 1024,0 hPa 0,0 l/m 0,0 km/h (0 Bft) SW 225 0 min -4,8 C -3,3 C 0,0 km/h (0 Bft)
19.04.2015 06:05 -2,6 C 19,6 C -1,3 C -2,8 C -3,3 C 0,0 C 84 % 86 % 0 % 1024,0 hPa 0,0 l/m 0,0 km/h (0 Bft) SW 225 0 min -4,9 C -3,3 C 0,0 km/h (0 Bft)
19.04.2015 06:10 -2,5 C 19,5 C -1,3 C -2,8 C -3,3 C 0,0 C 84 % 86 % 0 % 1024,0 hPa 0,0 l/m 0,0 km/h (0 Bft) O-NO 67 0 min -4,8 C -3,3 C 0,0 km/h (0 Bft)
19.04.2015 06:15 -2,7 C 19,5 C -1,3 C -2,9 C -3,4 C 0,0 C 84 % 86 % 0 % 1024,0 hPa 0,0 l/m 0,0 km/h (0 Bft) O-NO 67 0 min -5,0 C -3,4 C 0,0 km/h (0 Bft)
19.04.2015 06:20 -2,7 C 19,5 C -1,3 C -2,9 C -3,3 C 0,0 C 85 % 86 % 0 % 1024,1 hPa 0,0 l/m 0,0 km/h (0 Bft) O-NO 67 0 min -4,9 C -3,3 C 0,0 km/h (0 Bft)
19.04.2015 06:25 -2,7 C 19,5 C -1,3 C -2,9 C -3,2 C 0,0 C 85 % 87 % 0 % 1024,1 hPa 0,0 l/m 0,0 km/h (0 Bft) W 270 0 min -4,9 C -3,2 C 0,0 km/h (0 Bft)
19.04.2015 06:30 -2,7 C 19,5 C -1,3 C -2,9 C -3,2 C 0,0 C 85 % 87 % 0 % 1024,1 hPa 0,0 l/m 0,0 km/h (0 Bft) W 270 0 min -4,9 C -3,2 C 0,0 km/h (0 Bft)
19.04.2015 06:35 -2,8 C 19,5 C -1,3 C -2,9 C -3,1 C 0,0 C 84 % 87 % 0 % 1024,1 hPa 0,0 l/m 0,0 km/h (0 Bft) SW 225 0 min -5,1 C -3,1 C 0,0 km/h (0 Bft)
19.04.2015 06:40 -2,8 C 19,5 C -1,3 C -2,9 C -3,0 C 0,0 C 85 % 87 % 0 % 1024,1 hPa 0,0 l/m 0,0 km/h (0 Bft) W 270 0 min -5,0 C -3,0 C 0,0 km/h (0 Bft)
19.04.2015 06:45 -2,8 C 19,4 C -1,1 C -2,8 C -2,8 C 0,0 C 85 % 87 % 0 % 1024,1 hPa 0,0 l/m 0,0 km/h (0 Bft) W 270 0 min -5,0 C -2,8 C 0,0 km/h (0 Bft)
19.04.2015 06:50 -2,8 C 19,4 C -1,0 C -2,7 C -2,7 C 0,1 C 85 % 87 % 3 % 1024,1 hPa 0,0 l/m 0,0 km/h (0 Bft) W 270 0 min -5,0 C -2,7 C 0,0 km/h (0 Bft)
19.04.2015 06:55 -2,7 C 19,4 C -0,7 C -2,4 C -2,4 C 0,3 C 85 % 87 % 8 % 1024,1 hPa 0,0 l/m 0,0 km/h (0 Bft) W 270 0 min -4,9 C -2,4 C 0,0 km/h (0 Bft)
19.04.2015 07:00 -2,7 C 19,4 C -0,5 C -2,1 C -2,1 C 0,6 C 85 % 87 % 16 % 1023,8 hPa 0,0 l/m 0,0 km/h (0 Bft) SW 225 0 min -4,9 C -2,1 C 0,0 km/h (0 Bft)
19.04.2015 07:05 -2,6 C 19,4 C -0,1 C -0,5 C -0,5 C 2,1 C 86 % 87 % 55 % 1023,8 hPa 0,0 l/m 0,0 km/h (0 Bft) W 270 5 min -4,6 C -0,5 C 0,0 km/h (0 Bft)
19.04.2015 07:10 -2,5 C 19,4 C 0,3 C 0,6 C 0,6 C 3,1 C 86 % 87 % 82 % 1023,8 hPa 0,0 l/m 0,0 km/h (0 Bft) W-SW 247 5 min -4,5 C 0,6 C 0,0 km/h (0 Bft)
19.04.2015 07:15 -2,4 C 19,3 C 0,5 C 1,6 C 1,6 C 4,0 C 86 % 86 % 100 % 1023,8 hPa 0,0 l/m 0,0 km/h (0 Bft) W-NW 292 5 min -4,4 C 1,6 C 0,0 km/h (0 Bft)
19.04.2015 07:20 -2,3 C 19,3 C 0,7 C 2,1 C 2,1 C 4,4 C 86 % 86 % 100 % 1024,2 hPa 0,0 l/m 0,0 km/h (0 Bft) SO 135 5 min -4,3 C 2,1 C 0,0 km/h (0 Bft)
19.04.2015 07:25 -1,7 C 19,3 C 1,2 C 3,7 C 3,7 C 5,4 C 87 % 86 % 100 % 1024,2 hPa 0,0 l/m 0,0 km/h (0 Bft) SW 225 5 min -3,6 C 3,7 C 0,0 km/h (0 Bft)
19.04.2015 07:30 -1,6 C 19,2 C 1,6 C 4,7 C 4,7 C 6,3 C 87 % 86 % 100 % 1024,2 hPa 0,0 l/m 0,0 km/h (0 Bft) SO 135 5 min -3,5 C 4,7 C 0,0 km/h (0 Bft)
19.04.2015 07:35 -1,5 C 19,1 C 1,9 C 5,7 C 5,7 C 7,2 C 87 % 85 % 100 % 1024,2 hPa 0,0 l/m 0,0 km/h (0 Bft) S-SW 202 5 min -3,4 C 5,7 C 0,0 km/h (0 Bft)
19.04.2015 07:40 -1,3 C 19,1 C 2,0 C 5,8 C 5,8 C 7,1 C 87 % 84 % 100 % 1024,2 hPa 0,0 l/m 0,0 km/h (0 Bft) SW 225 5 min -3,2 C 5,8 C 0,0 km/h (0 Bft)
19.04.2015 07:45 -1,3 C 19,1 C 2,1 C 6,2 C 6,2 C 7,5 C 87 % 84 % 100 % 1024,2 hPa 0,0 l/m 0,0 km/h (0 Bft) S 180 5 min -3,2 C 6,2 C 0,0 km/h (0 Bft)
19.04.2015 07:50 -1,2 C 19,1 C 2,4 C 7,0 C 7,0 C 8,2 C 87 % 84 % 100 % 1024,2 hPa 0,0 l/m 0,0 km/h (0 Bft) W-SW 247 5 min -3,1 C 7,0 C 0,0 km/h (0 Bft)
19.04.2015 07:55 -0,9 C 19,0 C 2,8 C 8,0 C 8,0 C 8,9 C 87 % 84 % 100 % 1024,2 hPa 0,0 l/m 0,0 km/h (0 Bft) N-NW 337 5 min -2,8 C 8,0 C 0,0 km/h (0 Bft)
19.04.2015 08:00 -0,7 C 19,0 C 3,2 C 9,0 C 9,0 C 9,7 C 87 % 83 % 100 % 1024,4 hPa 0,0 l/m 0,0 km/h (0 Bft) W-NW 292 5 min -2,6 C 9,0 C 0,0 km/h (0 Bft)
19.04.2015 08:05 -0,3 C 18,9 C 3,5 C 9,9 C 9,9 C 10,2 C 87 % 83 % 100 % 1024,4 hPa 0,0 l/m 0,0 km/h (0 Bft) NO 45 5 min -2,2 C 9,9 C 0,0 km/h (0 Bft)
19.04.2015 08:10 0,1 C 18,8 C 3,7 C 10,4 C 10,4 C 10,3 C 87 % 82 % 100 % 1024,4 hPa 0,0 l/m 0,0 km/h (0 Bft) O-NO 67 5 min -1,8 C 10,4 C 0,0 km/h (0 Bft)
19.04.2015 08:15 0,8 C 18,7 C 4,3 C 11,9 C 11,9 C 11,1 C 87 % 82 % 100 % 1024,4 hPa 0,0 l/m 0,0 km/h (0 Bft) S-SW 202 5 min -1,1 C 11,9 C 0,0 km/h (0 Bft)
19.04.2015 08:20 1,1 C 18,7 C 4,4 C 12,8 C 12,8 C 11,7 C 87 % 81 % 100 % 1024,4 hPa 0,0 l/m 0,0 km/h (0 Bft) S-SW 202 5 min -0,8 C 12,8 C 0,0 km/h (0 Bft)
19.04.2015 08:25 1,5 C 18,7 C 4,9 C 14,3 C 14,3 C 12,8 C 86 % 80 % 100 % 1024,4 hPa 0,0 l/m 0,0 km/h (0 Bft) S 180 5 min -0,6 C 14,3 C 0,0 km/h (0 Bft)
19.04.2015 08:30 1,8 C 18,7 C 5,2 C 15,0 C 15,0 C 13,2 C 86 % 80 % 100 % 1024,4 hPa 0,0 l/m 0,0 km/h (0 Bft) S 180 5 min -0,3 C 15,0 C 0,0 km/h (0 Bft)
19.04.2015 08:35 2,3 C 18,7 C 5,4 C 15,6 C 15,6 C 13,3 C 84 % 78 % 100 % 1024,4 hPa 0,0 l/m 0,0 km/h (0 Bft) S 180 5 min -0,1 C 15,6 C 2,1 km/h (1 Bft)
19.04.2015 08:40 2,6 C 18,6 C 5,5 C 15,8 C 15,8 C 13,2 C 83 % 78 % 100 % 1024,4 hPa 0,0 l/m 0,0 km/h (0 Bft) W-SW 247 5 min 0,0 C 15,8 C 0,0 km/h (0 Bft)
19.04.2015 08:45 3,2 C 18,6 C 5,4 C 16,0 C 16,0 C 12,8 C 81 % 77 % 100 % 1024,4 hPa 0,0 l/m 0,3 km/h (0 Bft) W-SW 247 5 min 0,3 C 16,0 C 0,0 km/h (0 Bft)
19.04.2015 08:50 3,5 C 18,6 C 5,2 C 15,5 C 15,5 C 12,0 C 81 % 76 % 100 % 1024,4 hPa 0,0 l/m 0,8 km/h (0 Bft) S-SO 157 5 min 0,6 C 15,5 C 1,8 km/h (1 Bft)
19.04.2015 08:55 3,8 C 18,6 C 5,2 C 14,8 C 14,8 C 11,0 C 79 % 77 % 100 % 1024,4 hPa 0,0 l/m 0,6 km/h (0 Bft) W-SW 247 5 min 0,5 C 14,8 C 3,4 km/h (1 Bft)
19.04.2015 09:00 4,0 C 18,6 C 5,2 C 14,8 C 14,8 C 10,8 C 80 % 77 % 100 % 1024,6 hPa 0,0 l/m 0,3 km/h (0 Bft) SW 225 5 min 0,9 C 14,8 C 0,0 km/h (0 Bft)
19.04.2015 09:05 4,4 C 18,6 C 5,5 C 15,3 C 15,3 C 10,9 C 78 % 77 % 100 % 1024,6 hPa 0,0 l/m 0,6 km/h (0 Bft) W-SW 247 5 min 0,9 C 15,3 C 2,9 km/h (1 Bft)
19.04.2015 09:10 4,9 C 18,6 C 5,6 C 15,5 C 15,5 C 10,6 C 77 % 77 % 100 % 1024,6 hPa 0,0 l/m 1,4 km/h (1 Bft) W-SW 247 5 min 1,2 C 15,5 C 2,6 km/h (1 Bft)
19.04.2015 09:15 5,5 C 18,6 C 5,9 C 15,4 C 15,4 C 9,9 C 76 % 76 % 100 % 1024,6 hPa 0,0 l/m 1,9 km/h (1 Bft) S 180 5 min 1,6 C 15,4 C 5,3 km/h (1 Bft)
19.04.2015 09:20 6,0 C 18,7 C 6,3 C 15,0 C 15,0 C 9,0 C 74 % 76 % 100 % 1024,6 hPa 0,0 l/m 1,6 km/h (1 Bft) S-SW 202 5 min 1,7 C 15,0 C 0,0 km/h (0 Bft)
19.04.2015 09:25 6,3 C 18,6 C 6,4 C 14,4 C 14,4 C 8,1 C 72 % 75 % 100 % 1024,6 hPa 0,0 l/m 1,8 km/h (1 Bft) W-SW 247 5 min 1,6 C 14,4 C 6,1 km/h (2 Bft)
19.04.2015 09:30 6,5 C 18,6 C 6,5 C 13,9 C 13,9 C 7,4 C 71 % 74 % 100 % 1024,6 hPa 0,0 l/m 1,9 km/h (1 Bft) S-SW 202 5 min 1,6 C 13,9 C 5,1 km/h (1 Bft)
19.04.2015 09:35 6,7 C 18,6 C 6,6 C 13,0 C 13,0 C 6,3 C 71 % 74 % 100 % 1024,6 hPa 0,0 l/m 1,6 km/h (1 Bft) S-SO 157 5 min 1,8 C 13,0 C 3,2 km/h (1 Bft)
19.04.2015 09:40 7,1 C 18,7 C 6,9 C 12,6 C 12,6 C 5,5 C 71 % 74 % 100 % 1024,4 hPa 0,0 l/m 1,8 km/h (1 Bft) W-NW 292 5 min 2,2 C 12,6 C 0,0 km/h (0 Bft)
19.04.2015 09:45 7,2 C 18,7 C 7,5 C 12,9 C 12,9 C 5,7 C 70 % 74 % 100 % 1024,4 hPa 0,0 l/m 1,6 km/h (1 Bft) S-SO 157 5 min 2,1 C 12,9 C 2,3 km/h (1 Bft)
19.04.2015 09:50 7,5 C 18,7 C 8,0 C 13,9 C 13,9 C 6,4 C 69 % 73 % 100 % 1024,4 hPa 0,0 l/m 1,6 km/h (1 Bft) SO 135 5 min 2,2 C 13,9 C 3,1 km/h (1 Bft)
19.04.2015 09:55 7,8 C 18,6 C 8,3 C 13,9 C 13,9 C 6,1 C 69 % 72 % 100 % 1024,4 hPa 0,0 l/m 0,8 km/h (0 Bft) W-SW 247 5 min 2,5 C 13,9 C 2,9 km/h (1 Bft)
19.04.2015 10:00 8,0 C 18,7 C 8,3 C 13,9 C 13,9 C 5,9 C 68 % 71 % 100 % 1024,6 hPa 0,0 l/m 1,0 km/h (0 Bft) NW 315 5 min 2,5 C 13,9 C 0,0 km/h (0 Bft)
19.04.2015 10:05 8,3 C 18,7 C 8,4 C 14,4 C 14,4 C 6,1 C 68 % 70 % 100 % 1024,6 hPa 0,0 l/m 0,5 km/h (0 Bft) SW 225 5 min 2,7 C 14,4 C 0,0 km/h (0 Bft)
19.04.2015 10:10 8,5 C 18,7 C 8,8 C 14,5 C 14,5 C 6,0 C 67 % 70 % 100 % 1024,6 hPa 0,0 l/m 0,3 km/h (0 Bft) S-SW 202 5 min 2,7 C 14,5 C 5,5 km/h (1 Bft)
19.04.2015 10:15 8,5 C 18,7 C 9,2 C 14,4 C 14,4 C 5,9 C 66 % 68 % 100 % 1024,6 hPa 0,0 l/m 1,3 km/h (1 Bft) W-SW 247 5 min 2,5 C 14,4 C 0,0 km/h (0 Bft)
19.04.2015 10:20 8,7 C 18,7 C 9,6 C 15,1 C 15,1 C 6,4 C 66 % 68 % 100 % 1024,6 hPa 0,0 l/m 1,6 km/h (1 Bft) N-NO 22 5 min 2,7 C 15,1 C 3,5 km/h (1 Bft)
19.04.2015 10:25 9,0 C 18,7 C 10,3 C 14,7 C 14,7 C 5,7 C 64 % 66 % 100 % 1024,6 hPa 0,0 l/m 1,4 km/h (1 Bft) W 270 5 min 2,6 C 14,7 C 2,9 km/h (1 Bft)
19.04.2015 10:30 9,0 C 18,7 C 10,3 C 14,7 C 14,7 C 5,7 C 62 % 65 % 100 % 1024,6 hPa 0,0 l/m 2,1 km/h (1 Bft) N-NW 337 5 min 2,1 C 14,7 C 3,1 km/h (1 Bft)
19.04.2015 10:35 9,2 C 18,7 C 10,5 C 14,5 C 14,5 C 5,3 C 63 % 65 % 100 % 1024,6 hPa 0,0 l/m 1,9 km/h (1 Bft) SW 225 5 min 2,5 C 14,5 C 4,2 km/h (1 Bft)
19.04.2015 10:40 9,2 C 18,8 C 10,9 C 14,2 C 14,2 C 5,0 C 64 % 64 % 100 % 1024,4 hPa 0,0 l/m 1,9 km/h (1 Bft) SO 135 5 min 2,8 C 14,2 C 4,5 km/h (1 Bft)
19.04.2015 10:45 9,4 C 18,8 C 10,9 C 13,3 C 13,3 C 3,9 C 60 % 61 % 100 % 1024,4 hPa 0,0 l/m 2,7 km/h (1 Bft) O-NO 67 5 min 2,0 C 13,3 C 6,8 km/h (2 Bft)
19.04.2015 10:50 9,4 C 18,8 C 11,4 C 12,9 C 12,9 C 3,5 C 60 % 58 % 92 % 1024,4 hPa 0,0 l/m 3,7 km/h (1 Bft) O-SO 112 5 min 2,0 C 12,9 C 8,0 km/h (2 Bft)
19.04.2015 10:55 9,5 C 18,7 C 12,1 C 12,4 C 12,4 C 2,9 C 59 % 56 % 76 % 1024,4 hPa 0,0 l/m 4,8 km/h (1 Bft) O-NO 67 0 min 1,9 C 12,4 C 4,2 km/h (1 Bft)
19.04.2015 11:00 9,7 C 18,7 C 12,7 C 12,2 C 12,2 C 2,5 C 60 % 55 % 66 % 1024,6 hPa 0,0 l/m 4,7 km/h (1 Bft) O-NO 67 0 min 2,3 C 12,2 C 5,8 km/h (2 Bft)
19.04.2015 11:05 9,7 C 18,7 C 12,8 C 12,2 C 12,2 C 2,5 C 58 % 54 % 66 % 1024,6 hPa 0,0 l/m 4,0 km/h (1 Bft) N-NO 22 0 min 1,8 C 12,2 C 3,1 km/h (1 Bft)
19.04.2015 11:10 9,8 C 18,7 C 13,3 C 12,5 C 12,5 C 2,7 C 58 % 53 % 71 % 1024,6 hPa 0,0 l/m 4,3 km/h (1 Bft) O-NO 67 0 min 1,9 C 12,5 C 5,0 km/h (1 Bft)
19.04.2015 11:15 10,1 C 18,7 C 13,6 C 13,0 C 13,0 C 2,9 C 55 % 50 % 76 % 1024,6 hPa 0,0 l/m 4,0 km/h (1 Bft) O-SO 112 0 min 1,5 C 13,0 C 5,0 km/h (1 Bft)
19.04.2015 11:20 10,3 C 18,8 C 14,0 C 13,6 C 13,6 C 3,3 C 54 % 48 % 87 % 1025,2 hPa 0,0 l/m 3,7 km/h (1 Bft) O-NO 67 5 min 1,4 C 13,6 C 0,0 km/h (0 Bft)
19.04.2015 11:25 10,4 C 18,8 C 14,3 C 13,9 C 13,9 C 3,5 C 55 % 49 % 92 % 1025,2 hPa 0,0 l/m 3,2 km/h (1 Bft) O-SO 112 5 min 1,8 C 13,9 C 5,8 km/h (2 Bft)
19.04.2015 11:30 10,4 C 18,8 C 14,7 C 13,8 C 13,8 C 3,4 C 55 % 49 % 89 % 1025,2 hPa 0,0 l/m 2,9 km/h (1 Bft) SW 225 5 min 1,8 C 13,8 C 4,3 km/h (1 Bft)
19.04.2015 11:35 10,5 C 18,8 C 15,4 C 13,5 C 13,5 C 3,0 C 53 % 46 % 79 % 1025,2 hPa 0,0 l/m 3,4 km/h (1 Bft) SO 135 0 min 1,3 C 13,5 C 3,7 km/h (1 Bft)
19.04.2015 11:40 10,6 C 18,9 C 15,8 C 13,4 C 13,4 C 2,8 C 53 % 46 % 74 % 1024,7 hPa 0,0 l/m 2,7 km/h (1 Bft) SW 225 0 min 1,4 C 13,4 C 2,7 km/h (1 Bft)
19.04.2015 11:45 10,5 C 18,9 C 16,3 C 14,1 C 14,1 C 3,6 C 53 % 43 % 95 % 1024,7 hPa 0,0 l/m 2,6 km/h (1 Bft) N-NW 337 5 min 1,3 C 14,1 C 4,0 km/h (1 Bft)
19.04.2015 11:50 10,6 C 18,9 C 16,7 C 14,5 C 14,5 C 3,9 C 52 % 41 % 100 % 1024,7 hPa 0,0 l/m 3,4 km/h (1 Bft) O 90 5 min 1,2 C 14,5 C 5,8 km/h (2 Bft)
19.04.2015 11:55 10,7 C 18,9 C 16,3 C 14,1 C 14,1 C 3,4 C 51 % 41 % 89 % 1024,7 hPa 0,0 l/m 4,0 km/h (1 Bft) O 90 5 min 1,0 C 14,1 C 8,7 km/h (2 Bft)
19.04.2015 12:00 10,7 C 18,9 C 15,9 C 13,5 C 13,5 C 2,8 C 50 % 42 % 74 % 1024,7 hPa 0,0 l/m 4,2 km/h (1 Bft) O-NO 67 0 min 0,7 C 13,5 C 2,3 km/h (1 Bft)
19.04.2015 12:05 10,7 C 18,9 C 15,8 C 13,2 C 13,2 C 2,5 C 50 % 42 % 66 % 1024,7 hPa 0,0 l/m 3,7 km/h (1 Bft) NO 45 0 min 0,7 C 13,2 C 3,7 km/h (1 Bft)
19.04.2015 12:10 10,9 C 19,0 C 15,9 C 13,6 C 13,6 C 2,7 C 49 % 41 % 71 % 1024,7 hPa 0,0 l/m 2,7 km/h (1 Bft) SO 135 0 min 0,6 C 13,6 C 5,0 km/h (1 Bft)
19.04.2015 12:15 11,0 C 19,0 C 16,3 C 14,3 C 14,3 C 3,3 C 50 % 41 % 87 % 1024,7 hPa 0,0 l/m 2,7 km/h (1 Bft) O 90 5 min 1,0 C 14,3 C 0,0 km/h (0 Bft)
19.04.2015 12:20 11,2 C 19,0 C 16,7 C 14,9 C 14,9 C 3,7 C 49 % 40 % 97 % 1024,2 hPa 0,0 l/m 3,1 km/h (1 Bft) O 90 5 min 0,9 C 14,9 C 5,3 km/h (1 Bft)
19.04.2015 12:25 11,3 C 19,0 C 16,3 C 15,7 C 15,7 C 4,4 C 48 % 39 % 100 % 1024,2 hPa 0,0 l/m 3,9 km/h (1 Bft) O-NO 67 5 min 0,7 C 15,7 C 10,5 km/h (2 Bft)
19.04.2015 12:30 11,4 C 19,1 C 16,5 C 16,0 C 16,0 C 4,6 C 48 % 41 % 100 % 1024,2 hPa 0,0 l/m 4,8 km/h (1 Bft) O-SO 112 5 min 0,8 C 16,0 C 5,3 km/h (1 Bft)
19.04.2015 12:35 11,3 C 19,1 C 16,3 C 16,2 C 16,2 C 4,9 C 49 % 42 % 100 % 1024,2 hPa 0,0 l/m 4,5 km/h (1 Bft) O-NO 67 5 min 1,0 C 16,2 C 5,5 km/h (1 Bft)
19.04.2015 12:40 11,5 C 19,2 C 16,5 C 16,5 C 16,5 C 5,0 C 49 % 42 % 100 % 1024,6 hPa 0,0 l/m 4,8 km/h (1 Bft) O-NO 67 5 min 1,2 C 16,5 C 4,7 km/h (1 Bft)
19.04.2015 12:45 11,5 C 19,2 C 17,0 C 16,9 C 16,9 C 5,4 C 49 % 42 % 100 % 1024,6 hPa 0,0 l/m 3,9 km/h (1 Bft) O-NO 67 5 min 1,2 C 16,9 C 2,1 km/h (1 Bft)
19.04.2015 12:50 11,7 C 19,2 C 17,2 C 17,8 C 17,8 C 6,1 C 49 % 41 % 100 % 1024,6 hPa 0,0 l/m 2,6 km/h (1 Bft) O-NO 67 5 min 1,3 C 17,8 C 1,8 km/h (1 Bft)
19.04.2015 12:55 11,7 C 19,2 C 17,1 C 17,7 C 17,7 C 6,0 C 47 % 39 % 100 % 1024,6 hPa 0,0 l/m 3,5 km/h (1 Bft) O-NO 67 5 min 0,8 C 17,7 C 2,3 km/h (1 Bft)
19.04.2015 13:00 11,8 C 19,3 C 17,3 C 18,0 C 18,0 C 6,2 C 49 % 40 % 100 % 1024,3 hPa 0,0 l/m 4,3 km/h (1 Bft) O-SO 112 5 min 1,4 C 18,0 C 6,6 km/h (2 Bft)
19.04.2015 13:05 11,7 C 19,3 C 16,5 C 17,1 C 17,1 C 5,4 C 46 % 39 % 100 % 1024,3 hPa 0,0 l/m 5,3 km/h (1 Bft) O 90 5 min 0,5 C 17,1 C 5,3 km/h (1 Bft)
19.04.2015 13:10 11,7 C 19,3 C 16,8 C 16,8 C 16,8 C 5,1 C 48 % 40 % 100 % 1024,3 hPa 0,0 l/m 5,3 km/h (1 Bft) W-SW 247 5 min 1,1 C 16,8 C 0,0 km/h (0 Bft)
19.04.2015 13:15 11,9 C 19,3 C 17,7 C 17,5 C 17,5 C 5,6 C 47 % 40 % 100 % 1024,3 hPa 0,0 l/m 3,2 km/h (1 Bft) O-SO 112 5 min 1,0 C 17,5 C 2,6 km/h (1 Bft)
19.04.2015 13:20 12,1 C 19,4 C 17,7 C 18,2 C 18,2 C 6,1 C 48 % 38 % 100 % 1024,2 hPa 0,0 l/m 1,9 km/h (1 Bft) S 180 5 min 1,4 C 18,2 C 0,0 km/h (0 Bft)
19.04.2015 13:25 12,4 C 19,4 C 17,9 C 18,9 C 18,9 C 6,5 C 47 % 38 % 100 % 1024,2 hPa 0,0 l/m 2,4 km/h (1 Bft) O-NO 67 5 min 1,4 C 18,9 C 4,3 km/h (1 Bft)
19.04.2015 13:30 12,5 C 19,5 C 17,7 C 18,7 C 18,7 C 6,2 C 45 % 38 % 100 % 1024,2 hPa 0,0 l/m 3,4 km/h (1 Bft) NO 45 5 min 0,9 C 18,7 C 5,5 km/h (1 Bft)
19.04.2015 13:35 12,4 C 19,5 C 17,2 C 18,7 C 18,7 C 6,3 C 44 % 37 % 100 % 1024,2 hPa 0,0 l/m 3,9 km/h (1 Bft) NO 45 5 min 0,5 C 18,7 C 2,1 km/h (1 Bft)
19.04.2015 13:40 12,5 C 19,5 C 17,6 C 18,8 C 18,8 C 6,3 C 45 % 39 % 100 % 1024,2 hPa 0,0 l/m 3,2 km/h (1 Bft) O 90 5 min 0,9 C 18,8 C 2,6 km/h (1 Bft)
19.04.2015 13:45 12,5 C 19,6 C 18,4 C 18,9 C 18,9 C 6,4 C 46 % 39 % 100 % 1024,2 hPa 0,0 l/m 2,9 km/h (1 Bft) SO 135 5 min 1,2 C 18,9 C 1,8 km/h (1 Bft)
19.04.2015 13:50 12,7 C 19,5 C 18,3 C 18,9 C 18,9 C 6,2 C 45 % 35 % 100 % 1024,2 hPa 0,0 l/m 3,7 km/h (1 Bft) O-NO 67 5 min 1,1 C 18,9 C 6,9 km/h (2 Bft)
19.04.2015 13:55 12,4 C 19,6 C 17,9 C 18,1 C 18,1 C 5,7 C 44 % 38 % 100 % 1024,2 hPa 0,0 l/m 4,7 km/h (1 Bft) O-SO 112 5 min 0,5 C 18,1 C 6,4 km/h (2 Bft)
19.04.2015 14:00 12,4 C 19,6 C 18,4 C 18,3 C 18,3 C 5,9 C 45 % 37 % 100 % 1023,7 hPa 0,0 l/m 3,5 km/h (1 Bft) SO 135 5 min 0,8 C 18,3 C 3,2 km/h (1 Bft)
19.04.2015 14:05 13,1 C 19,7 C 18,9 C 19,2 C 19,2 C 6,1 C 45 % 36 % 100 % 1023,7 hPa 0,0 l/m 2,3 km/h (1 Bft) NO 45 5 min 1,4 C 19,2 C 0,0 km/h (0 Bft)
19.04.2015 14:10 13,2 C 19,6 C 18,9 C 19,6 C 19,6 C 6,4 C 45 % 35 % 100 % 1023,7 hPa 0,0 l/m 2,7 km/h (1 Bft) O-NO 67 5 min 1,5 C 19,6 C 7,6 km/h (2 Bft)
19.04.2015 14:15 13,1 C 19,7 C 17,5 C 19,3 C 19,3 C 6,2 C 45 % 36 % 100 % 1023,7 hPa 0,0 l/m 3,7 km/h (1 Bft) O-NO 67 5 min 1,4 C 19,3 C 6,6 km/h (2 Bft)
19.04.2015 14:20 13,2 C 19,7 C 17,1 C 19,1 C 19,1 C 5,9 C 44 % 37 % 100 % 1024,2 hPa 0,0 l/m 4,0 km/h (1 Bft) NW 315 5 min 1,2 C 19,1 C 4,2 km/h (1 Bft)
19.04.2015 14:25 13,3 C 19,7 C 17,5 C 19,4 C 19,4 C 6,1 C 43 % 37 % 100 % 1024,2 hPa 0,0 l/m 3,1 km/h (1 Bft) O-NO 67 5 min 1,0 C 19,4 C 5,6 km/h (1 Bft)
19.04.2015 14:30 13,3 C 19,7 C 17,6 C 19,3 C 19,3 C 6,0 C 42 % 36 % 100 % 1024,2 hPa 0,0 l/m 2,9 km/h (1 Bft) O-SO 112 5 min 0,7 C 19,3 C 1,6 km/h (1 Bft)
19.04.2015 14:35 13,2 C 19,7 C 18,2 C 19,6 C 19,6 C 6,4 C 43 % 36 % 100 % 1024,2 hPa 0,0 l/m 3,1 km/h (1 Bft) N-NW 337 5 min 0,9 C 19,6 C 3,4 km/h (1 Bft)
19.04.2015 14:40 13,3 C 19,8 C 18,1 C 19,5 C 19,5 C 6,2 C 43 % 36 % 100 % 1023,8 hPa 0,0 l/m 2,9 km/h (1 Bft) O-SO 112 5 min 1,0 C 19,5 C 4,0 km/h (1 Bft)
19.04.2015 14:45 13,1 C 19,8 C 17,6 C 18,9 C 18,9 C 5,8 C 43 % 38 % 100 % 1023,8 hPa 0,0 l/m 4,8 km/h (1 Bft) NW 315 5 min 0,8 C 18,9 C 13,0 km/h (3 Bft)
19.04.2015 14:50 13,3 C 19,8 C 17,6 C 18,8 C 18,8 C 5,5 C 43 % 37 % 100 % 1023,8 hPa 0,0 l/m 5,1 km/h (1 Bft) O 90 5 min 1,0 C 18,8 C 4,0 km/h (1 Bft)
19.04.2015 14:55 13,4 C 19,9 C 17,4 C 19,3 C 19,3 C 5,9 C 44 % 37 % 100 % 1023,8 hPa 0,0 l/m 3,7 km/h (1 Bft) O-NO 67 5 min 1,4 C 19,3 C 4,2 km/h (1 Bft)
19.04.2015 15:00 13,5 C 19,9 C 16,6 C 19,3 C 19,3 C 5,8 C 42 % 38 % 100 % 1024,0 hPa 0,0 l/m 3,4 km/h (1 Bft) O-NO 67 5 min 0,8 C 19,3 C 2,1 km/h (1 Bft)
19.04.2015 15:05 13,6 C 19,9 C 16,3 C 20,0 C 20,0 C 6,4 C 45 % 41 % 100 % 1024,0 hPa 0,0 l/m 3,2 km/h (1 Bft) O-NO 67 5 min 1,9 C 20,0 C 5,5 km/h (1 Bft)
19.04.2015 15:10 13,6 C 20,0 C 16,1 C 20,0 C 20,0 C 6,4 C 45 % 41 % 100 % 1024,0 hPa 0,0 l/m 3,2 km/h (1 Bft) N-NW 337 5 min 1,9 C 20,0 C 2,4 km/h (1 Bft)
19.04.2015 15:15 13,6 C 20,0 C 15,6 C 19,8 C 19,8 C 6,2 C 44 % 41 % 100 % 1024,0 hPa 0,0 l/m 4,2 km/h (1 Bft) NW 315 5 min 1,6 C 19,8 C 4,3 km/h (1 Bft)
19.04.2015 15:20 13,8 C 20,0 C 15,4 C 19,8 C 19,8 C 6,0 C 44 % 41 % 100 % 1023,8 hPa 0,0 l/m 4,2 km/h (1 Bft) NO 45 5 min 1,8 C 19,8 C 7,2 km/h (2 Bft)
19.04.2015 15:25 14,0 C 20,1 C 15,2 C 20,0 C 20,0 C 6,0 C 44 % 42 % 100 % 1023,8 hPa 0,0 l/m 3,9 km/h (1 Bft) O-NO 67 5 min 1,9 C 20,0 C 6,8 km/h (2 Bft)
19.04.2015 15:30 13,8 C 20,1 C 15,1 C 19,5 C 19,5 C 5,7 C 43 % 42 % 100 % 1023,8 hPa 0,0 l/m 4,2 km/h (1 Bft) SO 135 5 min 1,4 C 19,5 C 4,3 km/h (1 Bft)
19.04.2015 15:35 13,9 C 20,1 C 14,9 C 19,3 C 19,3 C 5,4 C 44 % 42 % 100 % 1023,8 hPa 0,0 l/m 4,7 km/h (1 Bft) O-SO 112 5 min 1,9 C 19,3 C 4,2 km/h (1 Bft)
19.04.2015 15:40 13,7 C 20,1 C 14,7 C 19,1 C 19,1 C 5,4 C 44 % 43 % 100 % 1023,8 hPa 0,0 l/m 4,5 km/h (1 Bft) O-NO 67 5 min 1,7 C 19,1 C 10,0 km/h (2 Bft)
19.04.2015 15:45 13,7 C 20,1 C 14,5 C 18,8 C 18,8 C 5,1 C 45 % 44 % 100 % 1023,8 hPa 0,0 l/m 5,0 km/h (1 Bft) O-NO 67 5 min 2,0 C 18,8 C 7,4 km/h (2 Bft)
19.04.2015 15:50 13,5 C 20,2 C 14,4 C 18,4 C 18,4 C 4,9 C 45 % 45 % 100 % 1023,8 hPa 0,0 l/m 5,1 km/h (1 Bft) O-NO 67 5 min 1,8 C 18,4 C 7,7 km/h (2 Bft)
19.04.2015 15:55 13,4 C 20,2 C 14,4 C 18,0 C 18,0 C 4,6 C 47 % 47 % 100 % 1023,8 hPa 0,0 l/m 5,5 km/h (1 Bft) O-NO 67 5 min 2,3 C 18,0 C 4,5 km/h (1 Bft)
19.04.2015 16:00 13,7 C 20,2 C 14,7 C 18,6 C 18,6 C 4,9 C 46 % 46 % 100 % 1023,5 hPa 0,0 l/m 4,8 km/h (1 Bft) O-NO 67 5 min 2,3 C 18,6 C 2,6 km/h (1 Bft)
19.04.2015 16:05 13,9 C 20,2 C 14,4 C 19,3 C 19,3 C 5,4 C 44 % 44 % 100 % 1023,5 hPa 0,0 l/m 3,4 km/h (1 Bft) O 90 5 min 1,9 C 19,3 C 2,3 km/h (1 Bft)
19.04.2015 16:10 14,0 C 20,3 C 14,4 C 19,3 C 19,3 C 5,3 C 45 % 45 % 100 % 1023,5 hPa 0,0 l/m 3,7 km/h (1 Bft) O-NO 67 5 min 2,3 C 19,3 C 4,3 km/h (1 Bft)
19.04.2015 16:15 13,9 C 20,3 C 14,3 C 19,0 C 19,0 C 5,1 C 45 % 45 % 100 % 1023,5 hPa 0,0 l/m 4,0 km/h (1 Bft) N-NO 22 5 min 2,2 C 19,0 C 7,6 km/h (2 Bft)
19.04.2015 16:20 13,8 C 20,3 C 14,3 C 19,1 C 19,1 C 5,3 C 45 % 45 % 100 % 1023,6 hPa 0,0 l/m 3,7 km/h (1 Bft) NO 45 5 min 2,1 C 19,1 C 4,5 km/h (1 Bft)
19.04.2015 16:25 13,9 C 20,3 C 14,4 C 19,5 C 19,5 C 5,6 C 44 % 46 % 100 % 1023,6 hPa 0,0 l/m 3,4 km/h (1 Bft) O 90 5 min 1,9 C 19,5 C 3,1 km/h (1 Bft)
19.04.2015 16:30 13,9 C 20,4 C 14,5 C 19,6 C 19,6 C 5,7 C 44 % 44 % 100 % 1023,6 hPa 0,0 l/m 3,9 km/h (1 Bft) O 90 5 min 1,9 C 19,6 C 4,0 km/h (1 Bft)
19.04.2015 16:35 13,9 C 20,4 C 14,4 C 19,7 C 19,7 C 5,8 C 45 % 44 % 100 % 1023,6 hPa 0,0 l/m 3,9 km/h (1 Bft) N 360 5 min 2,2 C 19,7 C 4,0 km/h (1 Bft)
19.04.2015 16:40 14,1 C 20,5 C 14,5 C 19,7 C 19,7 C 5,6 C 44 % 45 % 100 % 1023,9 hPa 0,0 l/m 3,4 km/h (1 Bft) O-NO 67 5 min 2,0 C 19,7 C 4,2 km/h (1 Bft)
19.04.2015 16:45 13,7 C 20,6 C 14,6 C 19,2 C 19,2 C 5,5 C 44 % 45 % 100 % 1023,9 hPa 0,0 l/m 3,9 km/h (1 Bft) O-NO 67 5 min 1,7 C 19,2 C 4,7 km/h (1 Bft)
19.04.2015 16:50 13,7 C 20,6 C 14,7 C 19,3 C 19,3 C 5,6 C 44 % 45 % 100 % 1023,9 hPa 0,0 l/m 3,7 km/h (1 Bft) NW 315 5 min 1,7 C 19,3 C 5,6 km/h (1 Bft)
19.04.2015 16:55 14,0 C 20,5 C 15,0 C 19,8 C 19,8 C 5,8 C 46 % 45 % 100 % 1023,9 hPa 0,0 l/m 2,9 km/h (1 Bft) O 90 5 min 2,6 C 19,8 C 4,3 km/h (1 Bft)
19.04.2015 17:00 14,0 C 20,6 C 14,9 C 19,3 C 19,3 C 5,3 C 45 % 44 % 100 % 1023,7 hPa 0,0 l/m 3,9 km/h (1 Bft) O-SO 112 5 min 2,3 C 19,3 C 6,8 km/h (2 Bft)
19.04.2015 17:05 13,9 C 20,7 C 15,1 C 18,4 C 18,4 C 4,5 C 45 % 43 % 100 % 1023,7 hPa 0,0 l/m 5,0 km/h (1 Bft) O-NO 67 5 min 2,2 C 18,4 C 4,8 km/h (1 Bft)
19.04.2015 17:10 13,8 C 20,7 C 15,2 C 18,5 C 18,5 C 4,7 C 44 % 44 % 100 % 1023,7 hPa 0,0 l/m 4,2 km/h (1 Bft) W 270 5 min 1,8 C 18,5 C 0,0 km/h (0 Bft)
19.04.2015 17:15 14,0 C 20,7 C 15,5 C 19,5 C 19,5 C 5,5 C 45 % 44 % 100 % 1023,7 hPa 0,0 l/m 2,4 km/h (1 Bft) O-NO 67 5 min 2,3 C 19,5 C 6,1 km/h (2 Bft)
19.04.2015 17:20 13,9 C 20,7 C 15,2 C 19,4 C 19,4 C 5,5 C 45 % 44 % 100 % 1023,5 hPa 0,0 l/m 2,7 km/h (1 Bft) O-SO 112 5 min 2,2 C 19,4 C 3,7 km/h (1 Bft)
19.04.2015 17:25 13,9 C 20,8 C 15,1 C 18,9 C 18,9 C 5,0 C 44 % 43 % 100 % 1023,5 hPa 0,0 l/m 4,5 km/h (1 Bft) O 90 5 min 1,9 C 18,9 C 6,4 km/h (2 Bft)
19.04.2015 17:30 13,7 C 20,8 C 15,1 C 18,5 C 18,5 C 4,8 C 45 % 43 % 100 % 1023,5 hPa 0,0 l/m 4,7 km/h (1 Bft) O-NO 67 5 min 2,0 C 18,5 C 5,3 km/h (1 Bft)
19.04.2015 17:35 13,8 C 20,8 C 15,3 C 18,4 C 18,4 C 4,6 C 44 % 44 % 100 % 1023,5 hPa 0,0 l/m 4,0 km/h (1 Bft) N-NW 337 5 min 1,8 C 18,4 C 1,6 km/h (1 Bft)
19.04.2015 17:40 13,9 C 20,8 C 15,0 C 18,9 C 18,9 C 5,0 C 45 % 44 % 100 % 1023,4 hPa 0,0 l/m 3,1 km/h (1 Bft) W-NW 292 5 min 2,2 C 18,9 C 4,8 km/h (1 Bft)
19.04.2015 17:45 13,9 C 20,9 C 14,8 C 19,0 C 19,0 C 5,1 C 44 % 43 % 100 % 1023,4 hPa 0,0 l/m 3,1 km/h (1 Bft) SO 135 5 min 1,9 C 19,0 C 4,5 km/h (1 Bft)
19.04.2015 17:50 13,9 C 20,9 C 15,3 C 18,8 C 18,8 C 4,9 C 44 % 43 % 100 % 1023,4 hPa 0,0 l/m 3,5 km/h (1 Bft) O-NO 67 5 min 1,9 C 18,8 C 4,2 km/h (1 Bft)
19.04.2015 17:55 13,7 C 20,9 C 15,1 C 18,4 C 18,4 C 4,7 C 44 % 43 % 100 % 1023,4 hPa 0,0 l/m 4,5 km/h (1 Bft) O-NO 67 5 min 1,7 C 18,4 C 6,8 km/h (2 Bft)
19.04.2015 18:00 13,7 C 20,9 C 14,7 C 18,2 C 18,2 C 4,5 C 45 % 44 % 100 % 1023,4 hPa 0,0 l/m 4,0 km/h (1 Bft) NW 315 5 min 2,0 C 18,2 C 0,0 km/h (0 Bft)
19.04.2015 18:05 13,7 C 20,9 C 14,9 C 18,4 C 18,4 C 4,7 C 45 % 44 % 100 % 1023,4 hPa 0,0 l/m 3,4 km/h (1 Bft) O-NO 67 5 min 2,0 C 18,4 C 3,4 km/h (1 Bft)
19.04.2015 18:10 13,8 C 20,9 C 14,9 C 18,4 C 18,4 C 4,6 C 45 % 43 % 100 % 1023,4 hPa 0,0 l/m 2,9 km/h (1 Bft) NO 45 5 min 2,1 C 18,4 C 1,8 km/h (1 Bft)
19.04.2015 18:15 13,7 C 21,0 C 14,5 C 18,4 C 18,4 C 4,7 C 45 % 43 % 100 % 1023,4 hPa 0,0 l/m 2,7 km/h (1 Bft) SO 135 5 min 2,0 C 18,4 C 4,3 km/h (1 Bft)
19.04.2015 18:20 13,9 C 21,0 C 14,3 C 18,4 C 18,4 C 4,5 C 44 % 44 % 100 % 1023,1 hPa 0,0 l/m 2,9 km/h (1 Bft) O 90 5 min 1,9 C 18,4 C 2,1 km/h (1 Bft)
19.04.2015 18:25 13,7 C 21,0 C 14,0 C 18,2 C 18,2 C 4,5 C 44 % 45 % 100 % 1023,1 hPa 0,0 l/m 3,4 km/h (1 Bft) N-NW 337 5 min 1,7 C 18,2 C 4,8 km/h (1 Bft)
19.04.2015 18:30 13,9 C 21,0 C 14,0 C 18,4 C 18,4 C 4,5 C 44 % 46 % 100 % 1023,1 hPa 0,0 l/m 2,7 km/h (1 Bft) SO 135 5 min 1,9 C 18,4 C 2,9 km/h (1 Bft)
19.04.2015 18:35 13,9 C 21,0 C 13,9 C 18,5 C 18,5 C 4,6 C 45 % 46 % 100 % 1023,1 hPa 0,0 l/m 2,7 km/h (1 Bft) O-NO 67 5 min 2,2 C 18,5 C 3,1 km/h (1 Bft)
19.04.2015 18:40 13,7 C 21,0 C 13,7 C 18,4 C 18,4 C 4,7 C 45 % 47 % 100 % 1023,1 hPa 0,0 l/m 2,6 km/h (1 Bft) NO 45 5 min 2,0 C 18,4 C 2,6 km/h (1 Bft)
19.04.2015 18:45 13,6 C 21,1 C 13,6 C 18,1 C 18,1 C 4,5 C 45 % 47 % 100 % 1023,1 hPa 0,0 l/m 1,8 km/h (1 Bft) O-NO 67 5 min 1,9 C 18,1 C 1,6 km/h (1 Bft)
19.04.2015 18:49 13,7 C 21,1 C 13,5 C 18,1 C 18,1 C 4,4 C 44 % 47 % 100 % 1023,1 hPa 0,0 l/m 1,6 km/h (1 Bft) O-SO 112 4 min 1,7 C 18,1 C 2,3 km/h (1 Bft)
19.04.2015 18:55 13,5 C 21,1 C 13,3 C 17,7 C 17,7 C 4,2 C 45 % 48 % 100 % 1023,1 hPa 0,0 l/m 2,3 km/h (1 Bft) NO 45 6 min 1,8 C 17,7 C 2,7 km/h (1 Bft)
19.04.2015 19:00 13,5 C 21,1 C 13,3 C 17,4 C 17,4 C 3,9 C 46 % 48 % 100 % 1023,6 hPa 0,0 l/m 2,6 km/h (1 Bft) NW 315 5 min 2,1 C 17,4 C 2,3 km/h (1 Bft)
19.04.2015 19:05 13,5 C 21,1 C 13,1 C 17,3 C 17,3 C 3,8 C 45 % 49 % 100 % 1023,6 hPa 0,0 l/m 1,9 km/h (1 Bft) O-NO 67 5 min 1,8 C 17,3 C 2,3 km/h (1 Bft)
19.04.2015 19:10 13,5 C 21,1 C 12,9 C 17,0 C 17,0 C 3,5 C 46 % 49 % 92 % 1023,6 hPa 0,0 l/m 1,8 km/h (1 Bft) O-NO 67 5 min 2,1 C 17,0 C 1,9 km/h (1 Bft)
19.04.2015 19:15 13,3 C 21,1 C 12,8 C 16,7 C 16,7 C 3,4 C 46 % 49 % 89 % 1023,6 hPa 0,0 l/m 2,3 km/h (1 Bft) O-NO 67 5 min 1,9 C 16,7 C 3,5 km/h (1 Bft)
19.04.2015 19:20 13,3 C 21,1 C 12,8 C 16,3 C 16,3 C 3,0 C 47 % 49 % 79 % 1023,6 hPa 0,0 l/m 2,3 km/h (1 Bft) NO 45 5 min 2,2 C 16,3 C 1,9 km/h (1 Bft)
19.04.2015 19:25 13,1 C 21,1 C 12,5 C 15,6 C 15,6 C 2,5 C 47 % 50 % 66 % 1023,6 hPa 0,0 l/m 1,8 km/h (1 Bft) O-NO 67 5 min 2,0 C 15,6 C 1,9 km/h (1 Bft)
19.04.2015 19:30 13,1 C 21,1 C 12,4 C 15,4 C 15,4 C 2,3 C 47 % 51 % 61 % 1023,6 hPa 0,0 l/m 1,4 km/h (1 Bft) O-NO 67 5 min 2,0 C 15,4 C 2,3 km/h (1 Bft)
19.04.2015 19:35 12,8 C 21,1 C 12,1 C 15,2 C 15,2 C 2,4 C 47 % 51 % 63 % 1023,6 hPa 0,0 l/m 1,1 km/h (1 Bft) NO 45 5 min 1,8 C 15,2 C 1,8 km/h (1 Bft)
19.04.2015 19:40 12,8 C 21,1 C 12,0 C 15,0 C 15,0 C 2,2 C 47 % 52 % 58 % 1023,5 hPa 0,0 l/m 0,6 km/h (0 Bft) O-NO 67 5 min 1,8 C 15,0 C 0,0 km/h (0 Bft)
19.04.2015 19:45 12,7 C 21,1 C 11,7 C 14,6 C 14,6 C 1,9 C 48 % 52 % 50 % 1023,5 hPa 0,0 l/m 0,5 km/h (0 Bft) O-NO 67 5 min 2,0 C 14,6 C 0,0 km/h (0 Bft)
19.04.2015 19:50 12,5 C 21,1 C 11,6 C 14,3 C 14,3 C 1,8 C 49 % 53 % 47 % 1023,5 hPa 0,0 l/m 0,2 km/h (0 Bft) NO 45 5 min 2,1 C 14,3 C 0,0 km/h (0 Bft)
19.04.2015 19:55 12,3 C 21,2 C 11,2 C 13,7 C 13,7 C 1,4 C 49 % 54 % 37 % 1023,5 hPa 0,0 l/m 0,0 km/h (0 Bft) NO 45 5 min 1,9 C 13,7 C 0,0 km/h (0 Bft)
19.04.2015 20:00 12,2 C 21,2 C 11,1 C 13,2 C 13,2 C 1,0 C 49 % 55 % 0 % 1023,5 hPa 0,0 l/m 0,0 km/h (0 Bft) NO 45 0 min 1,8 C 13,2 C 0,0 km/h (0 Bft)
19.04.2015 20:05 12,0 C 21,2 C 10,7 C 12,1 C 12,1 C 0,1 C 50 % 55 % 0 % 1023,5 hPa 0,0 l/m 0,0 km/h (0 Bft) NO 45 0 min 1,9 C 12,1 C 0,0 km/h (0 Bft)
19.04.2015 20:10 11,9 C 21,2 C 10,5 C 11,7 C 11,4 C 0,0 C 50 % 56 % 0 % 1023,5 hPa 0,0 l/m 0,0 km/h (0 Bft) O-NO 67 0 min 1,8 C 11,4 C 0,0 km/h (0 Bft)
19.04.2015 20:15 11,6 C 21,2 C 10,1 C 11,3 C 10,6 C 0,0 C 52 % 56 % 0 % 1023,5 hPa 0,0 l/m 0,0 km/h (0 Bft) O-NO 67 0 min 2,1 C 10,6 C 0,0 km/h (0 Bft)
19.04.2015 20:20 11,3 C 21,2 C 9,9 C 10,9 C 10,1 C 0,0 C 52 % 57 % 0 % 1023,9 hPa 0,0 l/m 0,0 km/h (0 Bft) O-NO 67 0 min 1,8 C 10,1 C 0,0 km/h (0 Bft)
19.04.2015 20:25 11,0 C 21,2 C 9,7 C 10,5 C 9,5 C 0,0 C 53 % 57 % 0 % 1023,9 hPa 0,0 l/m 0,0 km/h (0 Bft) N-NW 337 0 min 1,8 C 9,5 C 0,0 km/h (0 Bft)
19.04.2015 20:30 10,8 C 21,2 C 9,5 C 10,2 C 9,1 C 0,0 C 53 % 58 % 0 % 1023,9 hPa 0,0 l/m 0,0 km/h (0 Bft) O-NO 67 0 min 1,6 C 9,1 C 0,0 km/h (0 Bft)
19.04.2015 20:35 10,4 C 21,2 C 8,9 C 9,8 C 8,7 C 0,0 C 55 % 60 % 0 % 1023,9 hPa 0,0 l/m 0,0 km/h (0 Bft) O-NO 67 0 min 1,8 C 8,7 C 0,0 km/h (0 Bft)
19.04.2015 20:40 10,3 C 21,2 C 8,7 C 9,6 C 8,3 C 0,0 C 55 % 60 % 0 % 1024,0 hPa 0,0 l/m 0,0 km/h (0 Bft) W-SW 247 0 min 1,7 C 8,3 C 0,0 km/h (0 Bft)
19.04.2015 20:45 9,9 C 21,2 C 8,5 C 9,2 C 7,8 C 0,0 C 56 % 62 % 0 % 1024,0 hPa 0,0 l/m 0,0 km/h (0 Bft) SW 225 0 min 1,5 C 7,8 C 0,0 km/h (0 Bft)
19.04.2015 20:50 9,7 C 21,2 C 8,4 C 9,0 C 7,5 C 0,0 C 57 % 62 % 0 % 1024,0 hPa 0,0 l/m 0,0 km/h (0 Bft) W-SW 247 0 min 1,6 C 7,5 C 0,0 km/h (0 Bft)
19.04.2015 20:55 9,5 C 21,2 C 8,0 C 8,7 C 7,2 C 0,0 C 58 % 63 % 0 % 1024,0 hPa 0,0 l/m 0,0 km/h (0 Bft) W-SW 247 0 min 1,7 C 7,2 C 0,0 km/h (0 Bft)
19.04.2015 21:00 9,3 C 21,2 C 7,8 C 8,5 C 6,9 C 0,0 C 59 % 64 % 0 % 1024,2 hPa 0,0 l/m 0,0 km/h (0 Bft) W-SW 247 0 min 1,7 C 6,9 C 0,0 km/h (0 Bft)
19.04.2015 21:05 8,8 C 21,2 C 7,6 C 8,1 C 6,6 C 0,0 C 59 % 65 % 0 % 1024,2 hPa 0,0 l/m 0,0 km/h (0 Bft) W-SW 247 0 min 1,2 C 6,6 C 0,0 km/h (0 Bft)
19.04.2015 21:10 8,7 C 21,2 C 7,4 C 7,9 C 6,4 C 0,0 C 60 % 65 % 0 % 1024,2 hPa 0,0 l/m 0,0 km/h (0 Bft) W-SW 247 0 min 1,4 C 6,4 C 0,0 km/h (0 Bft)
19.04.2015 21:15 8,5 C 21,3 C 7,2 C 7,7 C 6,0 C 0,0 C 61 % 66 % 0 % 1024,2 hPa 0,0 l/m 0,0 km/h (0 Bft) W-SW 247 0 min 1,4 C 6,0 C 0,0 km/h (0 Bft)
19.04.2015 21:20 8,3 C 21,3 C 7,2 C 7,5 C 5,9 C 0,0 C 62 % 67 % 0 % 1024,2 hPa 0,0 l/m 0,0 km/h (0 Bft) W-SW 247 0 min 1,5 C 5,9 C 0,0 km/h (0 Bft)
19.04.2015 21:25 7,9 C 21,2 C 7,2 C 7,2 C 5,8 C 0,0 C 63 % 67 % 0 % 1024,2 hPa 0,0 l/m 0,0 km/h (0 Bft) W-SW 247 0 min 1,3 C 5,8 C 0,0 km/h (0 Bft)
19.04.2015 21:30 7,9 C 21,2 C 7,1 C 7,2 C 5,7 C 0,0 C 64 % 68 % 0 % 1024,2 hPa 0,0 l/m 0,0 km/h (0 Bft) W-SW 247 0 min 1,5 C 5,7 C 0,0 km/h (0 Bft)
19.04.2015 21:35 7,7 C 21,2 C 6,8 C 7,0 C 5,6 C 0,0 C 65 % 68 % 0 % 1024,2 hPa 0,0 l/m 0,0 km/h (0 Bft) W 270 0 min 1,5 C 5,6 C 0,0 km/h (0 Bft)
19.04.2015 21:40 7,5 C 21,2 C 6,7 C 6,8 C 5,4 C 0,0 C 65 % 69 % 0 % 1024,4 hPa 0,0 l/m 0,0 km/h (0 Bft) W 270 0 min 1,4 C 5,4 C 0,0 km/h (0 Bft)
19.04.2015 21:45 7,2 C 21,2 C 6,5 C 6,5 C 5,1 C 0,0 C 66 % 70 % 0 % 1024,4 hPa 0,0 l/m 0,0 km/h (0 Bft) W 270 0 min 1,3 C 5,1 C 0,0 km/h (0 Bft)
19.04.2015 21:50 7,1 C 21,2 C 6,4 C 6,4 C 5,0 C 0,0 C 66 % 70 % 0 % 1024,4 hPa 0,0 l/m 0,0 km/h (0 Bft) W 270 0 min 1,2 C 5,0 C 0,0 km/h (0 Bft)
19.04.2015 21:55 6,8 C 21,2 C 6,5 C 6,1 C 4,8 C 0,0 C 67 % 70 % 0 % 1024,4 hPa 0,0 l/m 0,0 km/h (0 Bft) W-SW 247 0 min 1,1 C 4,8 C 0,0 km/h (0 Bft)
19.04.2015 22:00 6,8 C 21,2 C 6,3 C 6,1 C 4,7 C 0,0 C 68 % 71 % 0 % 1024,2 hPa 0,0 l/m 0,0 km/h (0 Bft) W-SW 247 0 min 1,3 C 4,7 C 0,0 km/h (0 Bft)
19.04.2015 22:05 6,7 C 21,2 C 6,1 C 6,0 C 4,5 C 0,0 C 68 % 71 % 0 % 1024,2 hPa 0,0 l/m 0,0 km/h (0 Bft) W-SW 247 0 min 1,2 C 4,5 C 0,0 km/h (0 Bft)
19.04.2015 22:10 6,5 C 21,2 C 6,1 C 5,8 C 4,5 C 0,0 C 69 % 71 % 0 % 1024,2 hPa 0,0 l/m 0,0 km/h (0 Bft) NW 315 0 min 1,2 C 4,5 C 0,0 km/h (0 Bft)
19.04.2015 22:15 6,4 C 21,2 C 5,9 C 5,7 C 4,4 C 0,0 C 70 % 72 % 0 % 1024,2 hPa 0,0 l/m 0,0 km/h (0 Bft) NW 315 0 min 1,3 C 4,4 C 0,0 km/h (0 Bft)
19.04.2015 22:20 6,3 C 21,1 C 5,7 C 5,6 C 4,3 C 0,0 C 70 % 72 % 0 % 1024,5 hPa 0,0 l/m 0,0 km/h (0 Bft) NW 315 0 min 1,2 C 4,3 C 0,0 km/h (0 Bft)
19.04.2015 22:25 6,0 C 21,1 C 5,5 C 5,3 C 4,0 C 0,0 C 70 % 73 % 0 % 1024,5 hPa 0,0 l/m 0,0 km/h (0 Bft) O-NO 67 0 min 1,0 C 4,0 C 0,0 km/h (0 Bft)
19.04.2015 22:30 5,9 C 21,1 C 5,5 C 5,2 C 3,8 C 0,0 C 70 % 73 % 0 % 1024,5 hPa 0,0 l/m 0,0 km/h (0 Bft) W-SW 247 0 min 0,9 C 3,8 C 0,0 km/h (0 Bft)
19.04.2015 22:35 5,9 C 21,1 C 5,5 C 5,1 C 3,6 C 0,0 C 71 % 74 % 0 % 1024,5 hPa 0,0 l/m 0,0 km/h (0 Bft) W-SW 247 0 min 1,1 C 3,6 C 0,0 km/h (0 Bft)
19.04.2015 22:40 5,7 C 21,2 C 5,3 C 5,0 C 3,6 C 0,0 C 72 % 74 % 0 % 1024,6 hPa 0,0 l/m 0,0 km/h (0 Bft) N-NO 22 0 min 1,1 C 3,6 C 0,0 km/h (0 Bft)
19.04.2015 22:45 5,5 C 21,2 C 5,3 C 4,8 C 3,4 C 0,0 C 72 % 74 % 0 % 1024,6 hPa 0,0 l/m 0,0 km/h (0 Bft) NW 315 0 min 0,9 C 3,4 C 0,0 km/h (0 Bft)
19.04.2015 22:50 5,5 C 21,2 C 5,2 C 4,8 C 3,3 C 0,0 C 72 % 74 % 0 % 1024,6 hPa 0,0 l/m 0,0 km/h (0 Bft) W 270 0 min 0,9 C 3,3 C 0,0 km/h (0 Bft)
19.04.2015 22:55 5,3 C 21,2 C 5,2 C 4,6 C 3,3 C 0,0 C 73 % 75 % 0 % 1024,6 hPa 0,0 l/m 0,0 km/h (0 Bft) W-SW 247 0 min 0,9 C 3,3 C 0,0 km/h (0 Bft)
19.04.2015 23:00 5,3 C 21,2 C 5,1 C 4,6 C 3,3 C 0,0 C 73 % 75 % 0 % 1024,6 hPa 0,0 l/m 0,0 km/h (0 Bft) W-SW 247 0 min 0,9 C 3,3 C 0,0 km/h (0 Bft)
19.04.2015 23:05 5,1 C 21,1 C 5,1 C 4,5 C 3,3 C 0,0 C 73 % 75 % 0 % 1024,6 hPa 0,0 l/m 0,0 km/h (0 Bft) W-SW 247 0 min 0,7 C 3,3 C 0,0 km/h (0 Bft)
19.04.2015 23:10 5,1 C 21,1 C 4,9 C 4,5 C 3,2 C 0,0 C 73 % 75 % 0 % 1024,6 hPa 0,0 l/m 0,0 km/h (0 Bft) W-SW 247 0 min 0,7 C 3,2 C 0,0 km/h (0 Bft)
19.04.2015 23:15 4,9 C 21,1 C 4,8 C 4,3 C 3,1 C 0,0 C 74 % 76 % 0 % 1024,6 hPa 0,0 l/m 0,0 km/h (0 Bft) W-SW 247 0 min 0,7 C 3,1 C 0,0 km/h (0 Bft)
19.04.2015 23:20 4,8 C 21,1 C 4,7 C 4,2 C 3,0 C 0,0 C 74 % 76 % 0 % 1024,8 hPa 0,0 l/m 0,0 km/h (0 Bft) W-SW 247 0 min 0,6 C 3,0 C 0,0 km/h (0 Bft)
19.04.2015 23:25 4,7 C 21,1 C 4,6 C 4,1 C 2,9 C 0,0 C 74 % 76 % 0 % 1024,8 hPa 0,0 l/m 0,0 km/h (0 Bft) W-SW 247 0 min 0,5 C 2,9 C 0,0 km/h (0 Bft)
19.04.2015 23:30 4,7 C 21,1 C 4,6 C 4,1 C 2,8 C 0,0 C 75 % 76 % 0 % 1024,8 hPa 0,0 l/m 0,0 km/h (0 Bft) W-SW 247 0 min 0,7 C 2,8 C 0,0 km/h (0 Bft)
19.04.2015 23:35 4,7 C 21,1 C 4,4 C 4,0 C 2,6 C 0,0 C 75 % 77 % 0 % 1024,8 hPa 0,0 l/m 0,0 km/h (0 Bft) W-SW 247 0 min 0,7 C 2,6 C 0,0 km/h (0 Bft)
19.04.2015 23:40 4,5 C 21,0 C 4,5 C 3,8 C 2,5 C 0,0 C 75 % 77 % 0 % 1024,8 hPa 0,0 l/m 0,0 km/h (0 Bft) W-SW 247 0 min 0,5 C 2,5 C 0,0 km/h (0 Bft)
19.04.2015 23:45 4,5 C 21,0 C 4,3 C 3,8 C 2,3 C 0,0 C 75 % 77 % 0 % 1024,8 hPa 0,0 l/m 0,0 km/h (0 Bft) W-SW 247 0 min 0,5 C 2,3 C 0,0 km/h (0 Bft)
19.04.2015 23:50 4,3 C 21,0 C 4,3 C 3,6 C 2,2 C 0,0 C 76 % 77 % 0 % 1024,8 hPa 0,0 l/m 0,0 km/h (0 Bft) W-SW 247 0 min 0,5 C 2,2 C 0,0 km/h (0 Bft)
19.04.2015 23:55 4,3 C 21,0 C 4,1 C 3,6 C 2,1 C 0,0 C 76 % 77 % 0 % 1024,8 hPa 0,0 l/m 0,0 km/h (0 Bft) W-SW 247 0 min 0,5 C 2,1 C 0,0 km/h (0 Bft)
_ Min-Zeit 06:35 08:40 05:40 06:15 05:50 00:00 14:30 13:50 00:00 18:20 - 00:00 - - - 06:35 05:50 00:00
Minimum _ -2,8 C 18,6 C -1,3 C -2,9 C -3,4 C 0,0 C 42 % 35 % 0 % 1023,1 hPa - 0,0 km/h (0 Bft) - - - -5,1 C -3,4 C 0,0 km/h (0 Bft)
_ Max-Zeit 16:40 21:15 14:05 15:05 15:05 08:35 07:25 06:25 07:15 00:40 00:00 15:55 - - 18:55 10:40 15:05 14:45
Maximum _ 14,1 C 21,3 C 18,9 C 20,0 C 20,0 C 13,3 C 87 % 87 % 100 % 1025,6 hPa 0,0 l/m 5,5 km/h
O-NO (1 Bft)
- - 6 min 2,8 C 20,0 C 13,0 km/h
NW (3 Bft)
Durchschnitt _ 6,3 C 20,0 C 7,7 C 9,2 C 8,7 C 3,1 C 65 % 65 % 51 % 1024,2 hPa #0,0 l/m 1,4 km/h (1 Bft) O-NO - #12:05 h -0,3 C 8,7 C 1,8 km/h (1 Bft)
2015 www.wetterstation-wechselburg.de